Location: Clyde
(45.1830°S, 169.3170°E)
Time: 13:14:32
(UTC+13:00)

Atlas Centaur 2 - Pass Details

Date: 24 January 2019
Orbit: 459 x 1311 km, 30.4° (Epoch: 18 February)

Event Time Altitude Azimuth Distance (km) Brightness Sun altitude
Rises 22:20:54 0° 303° (WNW) 4,186 6.0 -9.4°
Reaches altitude 10° 22:24:15 10° 314° (NW) 3,284 5.3 -9.8°
Maximum altitude 22:31:02 27° 7° (N) 2,277 4.0 -10.7°
Enters shadow 22:36:39 14° 55° (NE) 3,003 4.4 -11.4°
